[[{"header":{"parameterUnit":"m.s-1","parameterCategory":1,"la1":30.2991,"la2":30.254,"lo1":-89.0895,"lo2":-89.0444,"dy":0.0017,"dx":0.0017,"nx":28,"ny":28,"refTime":"2024-09-28T21:00:00:Z","depth":0,"parameterNumber":2,"parameterNumberName":"U-component_of_WINDS"},"data":[0,0,0,0,0,0,0,0,0,0,0,0,0,0,0,0,0,0,0,0,0,0,0,0,0,0,0,0,0,0,0,0,0,0,0,0,0,0,0,0,0,0,0,0,0,0,0,0,0,0,0,0,0,0,0,0,0,0,2.2274,2.2275,0,2.2389,2.239,2.2392,2.2372,2.237,2.2368,2.2366,2.2489,2.2494,2.25,0,0,0,0,0,0,0,0,0,0,0,0,0,2.2042,2.2046,2.2274,2.2275,2.2277,2.2389,2.2391,2.2392,2.2372,2.237,2.2367,2.2365,2.2488,2.2494,2.25,0,0,0,0,0,0,0,0,0,0,0,0,0,2.2149,2.2048,2.2274,2.228,2.2282,2.2389,2.2391,2.2393,2.2373,2.237,2.2367,2.2364,2.2486,2.2493,2.2501,2.261,0,0,2.2525,2.2528,0,0,0,0,0,0,0,0,2.2143,2.2157,2.2278,2.228,2.2282,2.2363,2.2354,2.2466,2.2374,2.2339,2.2366,2.2362,2.245,2.2461,2.2489,2.2616,2.2621,2.2525,2.253,2.2533,2.2536,0,0,0,0,0,0,0,2.2135,2.2152,2.232,2.228,2.2282,2.2279,2.2291,2.2375,2.241,2.2341,2.234,2.2354,2.2451,2.2482,2.2492,2.2623,2.2525,2.2532,2.2537,2.254,2.2847,2.285,0,0,0,0,0,0,2.2125,2.2146,2.2316,2.2323,2.2203,2.2286,2.2299,2.234,2.2409,2.2417,2.2356,2.2352,2.247,2.2483,2.2496,2.263,2.2533,2.2541,2.2545,2.2843,2.2847,2.2851,0,0,0,0,0,0,2.212,2.214,2.2311,2.2234,2.2256,2.2293,2.2339,2.2344,2.2375,2.242,2.2427,2.2381,2.2468,2.2485,2.2582,2.2634,2.2544,2.2551,2.2839,2.2844,2.2849,2.2896,0,0,0,0,0,0,2.2114,2.2139,2.2179,2.2235,2.226,2.2393,2.2343,2.2349,2.2388,2.2384,2.2445,2.2453,2.2467,2.257,2.259,2.2643,2.2557,2.2835,2.2841,2.2848,2.289,2.2903,2.2913,0,0,0,0,0,2.2105,2.2189,2.2181,2.2202,2.2311,2.2396,2.2411,2.2424,2.2392,2.2434,2.2463,2.2451,2.2624,2.258,2.2602,2.2658,2.2831,2.2839,2.2847,2.2885,2.29,2.2913,0,0,0,0,0,0,2.2139,2.2196,2.2189,2.2292,2.2339,2.2393,2.2446,2.2439,2.2497,2.2491,2.2507,2.2521,2.2619,2.2648,2.2598,2.2768,2.2724,2.2736,2.2746,2.276,2.2771,2.2763,2.2564,0,0,0,0,0,2.2158,2.2221,2.2268,2.2355,2.2379,2.2408,2.2446,2.2452,2.2502,2.2523,2.2559,2.261,2.2676,2.272,2.2783,2.2894,2.2909,2.2944,2.2955,2.2964,2.2975,2.3038,2.3055,2.2877,2.2877,2.2877,0,0,2.2199,2.2238,2.2277,2.2362,2.24,2.2467,2.2425,2.2497,2.2547,2.2534,2.2627,2.2656,2.2714,2.2819,2.2867,2.2846,2.3027,2.2974,2.2981,2.2987,2.3048,2.3065,2.308,2.2882,2.2881,2.288,0,0,2.2307,2.2342,2.2419,2.2457,2.2514,2.2533,2.2551,2.2606,2.2625,2.2718,2.271,2.2771,2.2884,2.2926,2.2962,2.3088,2.3079,2.3108,2.3168,2.3229,2.3243,2.3255,2.3302,2.3318,2.3119,2.3119,2.3119,0,2.2351,2.2449,2.246,2.2533,2.2572,2.2561,2.264,2.2677,2.2753,2.2781,2.2756,2.2899,2.2937,2.3052,2.3083,2.3112,2.3135,2.3102,2.324,2.3252,2.3264,2.3309,2.3326,2.3122,2.3122,2.3121,2.3121,0,2.2501,2.257,2.2625,2.2697,2.2742,2.2818,2.2842,2.2886,2.2889,2.2911,2.3008,2.3054,2.3127,2.3154,2.3158,2.3271,2.3256,2.3236,2.3192,2.3284,2.3327,2.3344,2.3127,2.3126,2.3125,2.3124,0,0,2.2634,2.271,2.2731,2.2764,2.2826,2.288,2.2956,2.3026,2.3065,2.3118,2.3184,2.328,2.3261,2.3303,2.3311,2.3365,2.3463,2.3338,2.3339,2.3361,2.3593,2.361,2.3629,2.3458,2.3461,2.3464,2.3589,0,2.2749,2.2882,2.2894,2.3014,2.3079,2.307,2.3137,2.3184,2.3207,2.3267,2.3294,2.3362,2.3331,2.3357,2.3409,2.344,2.3511,2.3431,2.3521,2.3525,2.3508,2.3651,2.3668,2.3784,2.3605,2.3608,2.361,0,2.2901,2.2957,2.3083,2.3137,2.3165,2.3225,2.3291,2.3347,2.3401,2.3414,2.3461,2.3462,2.3543,2.3495,2.3608,2.3554,2.3592,2.3613,2.3618,2.3628,2.3574,2.3666,2.3821,2.3839,2.3636,2.3634,2.3632,0,2.2987,2.3094,2.3183,2.3212,2.3277,2.332,2.3349,2.3399,2.3441,2.35,2.3527,2.3595,2.3632,2.3686,2.3706,2.3669,2.3819,2.3772,2.3835,2.3834,2.3867,2.3865,2.4032,2.389,2.3889,2.3889,2.3889,0,2.3115,2.3193,2.3223,2.3278,2.3366,2.338,2.3468,2.3495,2.354,2.3603,2.36,2.3659,2.3682,2.3745,2.3762,2.3854,2.3871,2.3886,2.3889,2.3887,2.3885,2.3913,2.3906,2.3894,2.3893,2.3892,2.3891,0,2.3226,2.3249,2.3346,2.34,2.3416,2.3478,2.3525,2.358,2.3602,2.3681,2.3701,2.3737,2.3812,2.3837,2.3928,2.3939,2.4047,2.4043,2.4029,2.403,2.4091,2.4086,2.4283,2.431,2.4148,2.4149,2.4151,0,2.3307,2.3366,2.3426,2.3467,2.3498,2.3564,2.3606,2.3623,2.3668,2.3734,2.3781,2.3855,2.3914,2.4034,2.407,2.414,2.4139,2.4203,2.415,2.4146,2.4142,2.4139,2.4146,2.4214,2.4215,2.4217,2.4218,0,2.3448,2.3457,2.3517,2.3582,2.3633,2.3685,2.3736,2.377,2.3794,2.3845,2.3921,2.3967,2.4059,2.4133,2.4205,2.4237,2.4233,2.4234,2.4253,2.4251,2.4241,2.4249,2.4058,2.423,2.4229,2.4228,2.4227,2.4227,2.3548,2.3601,2.3652,2.372,2.3759,2.3807,2.3861,2.389,2.3953,2.4028,2.4035,2.4117,2.4171,2.4266,2.4303,2.4368,2.4351,2.4377,2.4384,2.4391,2.4396,2.4229,2.4381,2.4381,2.4381,2.4381,2.438,0,2.369,2.3722,2.3785,2.3855,2.3909,2.3898,2.3954,2.4001,2.4072,2.4122,2.4181,2.4269,2.4341,2.4382,2.4455,2.45,2.45,2.4519,2.4516,2.4524,2.4407,2.4384,2.4518,2.4518,2.4518,2.4517,2.4517,2.4517,2.3771,2.3861,2.3876,2.3986,2.4018,2.4097,2.4131,2.4175,2.4215,2.4313,2.4372,2.4398,2.4446,2.4522,2.4588,2.4599,2.4627,2.4648,2.4657,2.4546,2.4532,2.4519,2.4498,2.4653,2.4653,2.4769,2.477,2.4771]},{"header":{"parameterUnit":"m.s-1","parameterCategory":1,"la1":30.2991,"la2":30.254,"lo1":-89.0895,"lo2":-89.0444,"dy":0.0017,"dx":0.0017,"nx":28,"ny":28,"refTime":"2024-09-28T21:00:00:Z","depth":0,"parameterNumber":3,"parameterNumberName":"V-component_of_WINDS"},"data":[0,0,0,0,0,0,0,0,0,0,0,0,0,0,0,0,0,0,0,0,0,0,0,0,0,0,0,0,0,0,0,0,0,0,0,0,0,0,0,0,0,0,0,0,0,0,0,0,0,0,0,0,0,0,0,0,0,0,0.7813,0.7814,0,0.7863,0.7864,0.7864,0.7876,0.7876,0.7876,0.7875,0.7928,0.793,0.7932,0,0,0,0,0,0,0,0,0,0,0,0,0,0.773,0.7731,0.7813,0.7814,0.7814,0.7863,0.7864,0.7864,0.7876,0.7876,0.7876,0.7875,0.7928,0.793,0.7932,0,0,0,0,0,0,0,0,0,0,0,0,0,0.7772,0.7732,0.7813,0.7826,0.7828,0.7863,0.7864,0.7865,0.7877,0.7876,0.7876,0.7875,0.7927,0.793,0.7932,0.7958,0,0,0.794,0.7941,0,0,0,0,0,0,0,0,0.7769,0.7775,0.7824,0.7825,0.7827,0.7863,0.7854,0.7896,0.7877,0.7858,0.7875,0.7875,0.7907,0.7911,0.7922,0.796,0.7963,0.794,0.7942,0.7943,0.7944,0,0,0,0,0,0,0,0.7766,0.7773,0.7833,0.7824,0.7827,0.783,0.7836,0.7862,0.7885,0.786,0.7861,0.7866,0.7908,0.7919,0.7923,0.7963,0.794,0.7942,0.7944,0.7945,0.8026,0.8027,0,0,0,0,0,0,0.7761,0.777,0.7831,0.7834,0.7796,0.7832,0.7838,0.7852,0.7885,0.7889,0.7867,0.7867,0.7915,0.792,0.7925,0.7958,0.7943,0.7945,0.7947,0.8025,0.8026,0.8027,0,0,0,0,0,0,0.7759,0.7766,0.7829,0.7803,0.7811,0.7834,0.785,0.7853,0.7865,0.789,0.7894,0.7874,0.7915,0.7921,0.795,0.796,0.7946,0.7949,0.8025,0.8026,0.8027,0.8023,0,0,0,0,0,0,0.7757,0.7766,0.7775,0.7803,0.7812,0.7853,0.785,0.7855,0.7869,0.7869,0.7898,0.7902,0.7915,0.7946,0.7952,0.7963,0.7951,0.8024,0.8025,0.8026,0.8022,0.8024,0.8025,0,0,0,0,0,0.7754,0.7773,0.7776,0.7783,0.7825,0.7853,0.7859,0.7873,0.7869,0.788,0.7896,0.7901,0.7957,0.7948,0.7956,0.7968,0.8023,0.8025,0.8026,0.8022,0.8024,0.8025,0,0,0,0,0,0,0.7746,0.7776,0.778,0.7808,0.7828,0.7855,0.7868,0.7874,0.7895,0.7895,0.7912,0.7919,0.7946,0.7959,0.7949,0.7995,0.799,0.7993,0.7985,0.7986,0.7988,0.7984,0.7953,0,0,0,0,0,0.7748,0.7768,0.7793,0.7816,0.7825,0.7845,0.7858,0.7867,0.7888,0.7897,0.7915,0.7936,0.7959,0.7973,0.7995,0.8024,0.8031,0.8036,0.8037,0.8038,0.8041,0.8058,0.8061,0.8031,0.8031,0.8031,0,0,0.7752,0.777,0.7782,0.7815,0.7831,0.7852,0.7852,0.7874,0.789,0.7901,0.7928,0.7942,0.7967,0.7996,0.8009,0.8008,0.805,0.804,0.8041,0.8043,0.806,0.8062,0.8065,0.8032,0.8032,0.8032,0,0,0.7769,0.7785,0.7806,0.7822,0.7846,0.7859,0.7864,0.7891,0.79,0.7928,0.7936,0.7956,0.7994,0.8011,0.8025,0.8049,0.8055,0.8055,0.8062,0.8079,0.8081,0.8083,0.8093,0.8096,0.8058,0.8058,0.8058,0,0.7771,0.7802,0.7816,0.7838,0.7852,0.7861,0.7883,0.7898,0.7929,0.7939,0.7937,0.7985,0.8002,0.8035,0.8041,0.8052,0.8058,0.8053,0.808,0.8082,0.8084,0.8093,0.8096,0.8058,0.8058,0.8058,0.8058,0,0.7803,0.7825,0.7839,0.7867,0.7883,0.7905,0.7922,0.7937,0.7944,0.7958,0.7986,0.8007,0.8034,0.8042,0.805,0.8077,0.8075,0.8076,0.8072,0.8087,0.8095,0.8099,0.8058,0.8058,0.8058,0.8058,0,0,0.7818,0.7854,0.7859,0.7872,0.79,0.7917,0.7939,0.7965,0.7977,0.7998,0.8017,0.8049,0.805,0.8066,0.8075,0.809,0.8108,0.8089,0.809,0.8092,0.814,0.8139,0.8143,0.8112,0.8112,0.8113,0.8138,0,0.7839,0.7879,0.7892,0.7925,0.7945,0.7954,0.7974,0.7993,0.8006,0.8026,0.804,0.8063,0.8062,0.8072,0.8086,0.8103,0.8118,0.8101,0.8131,0.8132,0.8125,0.8148,0.8147,0.817,0.8141,0.8142,0.8142,0,0.787,0.7891,0.7925,0.7951,0.796,0.7977,0.8001,0.802,0.8042,0.8051,0.8068,0.8077,0.8101,0.8095,0.8129,0.8117,0.813,0.814,0.8141,0.8145,0.8138,0.8153,0.8178,0.8181,0.8148,0.8147,0.8147,0,0.7878,0.7915,0.794,0.7951,0.7981,0.7993,0.8006,0.8028,0.8042,0.8064,0.8074,0.8098,0.8111,0.813,0.8146,0.814,0.8178,0.8174,0.8187,0.8187,0.8195,0.8195,0.8223,0.8202,0.8202,0.8202,0.8202,0,0.7901,0.7922,0.7944,0.796,0.7985,0.7999,0.8023,0.8037,0.8056,0.8075,0.8084,0.8102,0.8121,0.8142,0.8154,0.818,0.8186,0.8194,0.8198,0.8194,0.8193,0.8204,0.8203,0.8203,0.8203,0.8203,0.8202,0,0.7915,0.793,0.7959,0.7985,0.7992,0.8008,0.8031,0.8047,0.806,0.8084,0.8091,0.8112,0.8137,0.8153,0.8185,0.8193,0.8223,0.8225,0.8215,0.8217,0.8229,0.8228,0.8266,0.8272,0.8246,0.8246,0.8246,0,0.7929,0.7945,0.7973,0.7986,0.7999,0.802,0.8035,0.805,0.8065,0.8092,0.8105,0.813,0.8151,0.819,0.8209,0.8233,0.8237,0.8249,0.8241,0.8237,0.8238,0.8238,0.824,0.825,0.825,0.8251,0.8251,0,0.7952,0.7959,0.798,0.8003,0.8021,0.804,0.806,0.807,0.8089,0.8105,0.813,0.8147,0.8179,0.8204,0.823,0.8245,0.8251,0.8253,0.8257,0.8254,0.8248,0.8253,0.8219,0.8252,0.8252,0.8252,0.8252,0.8252,0.7967,0.7983,0.8004,0.8027,0.8043,0.8061,0.8078,0.8093,0.8114,0.8141,0.8148,0.8175,0.8197,0.8233,0.8248,0.8269,0.8268,0.8274,0.8276,0.8278,0.8278,0.8244,0.8274,0.8274,0.8274,0.8274,0.8274,0,0.7992,0.8006,0.8027,0.8054,0.8072,0.8076,0.8097,0.8113,0.8135,0.8155,0.8176,0.8205,0.8229,0.825,0.8275,0.8288,0.8292,0.8295,0.8295,0.8298,0.8277,0.8271,0.8291,0.8291,0.8291,0.8291,0.8291,0.8291,0.8007,0.8033,0.8043,0.8077,0.8092,0.8117,0.8129,0.8146,0.8162,0.8194,0.8214,0.8227,0.8248,0.8275,0.8298,0.8303,0.8312,0.8314,0.8321,0.8301,0.8299,0.8297,0.8292,0.8316,0.8316,0.834,0.834,0.834]}]]